Regional Weather Roundup
Issued by NWS

Home | Current Version | Previous Version | Text Only | Print | Product List | Glossary On
Versions: 1 2 3 4 5 6 7 8 9 10 11 12 13 14 15 16 17 18 19 20 21 22 23 24 25 26 27 28 29 30 31 32 33 34 35 36 37 38 39 40 41 42 43 44 45 46 47 48 49 50
000
ASUS43 KTOP 181108
RWRKS

WEATHER ROUNDUP FOR KANSAS
NATIONAL WEATHER SERVICE GOODLAND KS
600 AM CDT THU SEP 18 2014

NOTE:  "FAIR" INDICATES FEW OR NO CLOUDS BELOW 12,000 FEET WITH NO
SIGNIFICANT WEATHER AND/OR OBSTRUCTIONS TO VISIBILITY.

KSZ001>006-013>018-027>032-041>047-181200-
NORTHWEST KANSAS

CITY           SKY/WX    TMP DP  RH WIND       PRES   REMARKS
GOODLAND       FOG       63  63 100 E3        29.96S VSB 1/2
HAYS           CLOUDY    66  63  88 E10       29.91S
HILL CITY      FOG       65  64  97 E7        29.93S VSB 3/4
RUSSELL        MOCLDY    66  64  93 E6        29.89S
$$

KSZ061>065-074>080-084>089-181200-
SOUTHWEST KANSAS

CITY           SKY/WX    TMP DP  RH WIND       PRES   REMARKS
DODGE CITY     CLEAR     63  57  81 NW3       29.92R
ELKHART          N/A     63  55  75 SW8         N/A
GARDEN CITY    CLEAR     58  55  90 W8        29.91S
GREAT BEND     CLOUDY    68  64  88 SE9       29.89S
LIBERAL        CLEAR     63  55  77 SW9       29.94F
PRATT          CLEAR     63  61  94 CALM      29.91F
$$

KSZ066>073-081>083-090>101-181200-
SOUTHEAST KANSAS

CITY           SKY/WX    TMP DP  RH WIND       PRES   REMARKS
CHANUTE        TSTM      65  63  93 W8        29.99R
COFFEYVILLE    TSTM      64  63  96 N10       30.01R FOG
HUTCHINSON     CLOUDY    70  67  90 E14       29.89S FOG
MEDICINE LODGE   N/A     66  62  87 CALM      29.88R
NEWTON         PTCLDY    66  61  82 SE15G22   29.92S
PARSONS        TSTM      64  64 100 N8        30.04R FOG
WICHITA INTL   MOCLDY    70  66  87 E14       29.90R
WICHITA JABRA  CLOUDY    69  67  93 E14       29.91S
WICHITA MCCONL PTCLDY    68  68 100 E14       29.92R
WINFIELD       MOCLDY    74  69  85 SE8       29.92R
$$

KSZ007>012-019>026-033>040-048>060-102>105-181200-
NORTHEAST KANSAS

CITY           SKY/WX    TMP DP  RH WIND       PRES   REMARKS
CONCORDIA      CLOUDY    64  64 100 E8        29.93R FOG
EMPORIA        LGT RAIN  65  64  97 S5        29.94R
LAWRENCE       CLOUDY    63  61  93 E6        29.97R FOG
MANHATTAN      CLOUDY    66  64  93 E13       29.93R FOG
MARYSVILLE     CLOUDY    63  63 100 E9        29.95F FOG
OLATHE IND     CLOUDY    62  61  96 E7        29.99R
OLATHE EXE     CLOUDY    61  60  97 E7        29.98R FOG
SALINA         PTCLDY    67  63  87 E8        29.90S
TOPEKA BILLARD CLOUDY    65  64  97 E7        29.97R
TOPEKA FORBES  CLOUDY    65  63  93 E8        29.96R
$$


USA.gov is the U.S. government's official web portal to all federal, state and local government web resources and services.